Grass Valley, CA

8:12 AM PDT on April 25, 2018 (GMT -0700)
Grass Valley

Weather History for KGOO - August, 2013

Change the Weather History Date:

Thursday, August 8, 2013

  Actual Average (KAUN) Record (KAUN)
Temperature  
Mean Temperature 67 °F -  
Max Temperature 75 °F 93 °F 105 °F (1981)
Min Temperature 59 °F 64 °F 41 °F (1948)
Cooling Degree Days 2    
Growing Degree Days 17 (Base 50)    
Moisture  
Dew Point 44 °F    
Average Humidity 47    
Maximum Humidity 63    
Minimum Humidity 27    
Precipitation  
Precipitation 0.00 in - - ()
Sea Level Pressure  
Sea Level Pressure 30.05 in    
Wind  
Wind Speed 1 mph (SW)    
Max Wind Speed 10 mph    
Max Gust Speed -    
Visibility 10 miles    
Events      
Averages and records for this station are not official NWS values.
T = Trace of Precipitation, MM = Missing Value Source: NWS Daily Summary

Daily Weather History Graph

Daily Weather History Graph

Search for Another Location

Airport or City:

Astronomy

Aug. 08, 2013 Rise Set
Actual Time 6:10 AM PDT 8:07 PM PDT
Civil Twilight 5:41 AM PDT 8:36 PM PDT
Nautical Twilight 5:06 AM PDT 9:12 PM PDT
Astronomical Twilight 4:27 AM PDT 9:50 PM PDT
Moon 8:01 AM PDT (8/8) 8:50 PM PDT (8/8)
Length of Visible Light 14h 55m
Length of Day
13h 56m
Waxing Crescent, 3% of the Moon is Illuminated
Aug 8
Waxing Crescent
Aug 14
First Quarter
Aug 20
Full
Aug 28
Last Quarter
Sep 5
New

Hourly Weather History & Observations

Time (PDT) Temp. Dew Point Humidity Pressure Visibility Wind Dir Wind Speed Gust Speed Precip Events Conditions
12:00 AM 60.8 °F 46.4 °F 59% 30.08 in 10.0 mi Calm Calm - N/A   Clear
12:20 AM 62.6 °F 46.4 °F 55% 30.08 in 10.0 mi Calm Calm - N/A   Clear
12:40 AM 60.8 °F 46.4 °F 59% 30.09 in 10.0 mi Calm Calm - N/A   Clear
1:00 AM 59.0 °F 46.4 °F 63% 30.09 in 10.0 mi Calm Calm - N/A   Clear
1:20 AM 59.0 °F 44.6 °F 59% 30.08 in 10.0 mi Calm Calm - N/A   Clear
1:40 AM 59.0 °F 46.4 °F 63% 30.08 in 10.0 mi Calm Calm - N/A   Clear
2:00 AM 59.0 °F 44.6 °F 59% 30.07 in 10.0 mi Calm Calm - N/A   Clear
2:20 AM 59.0 °F 44.6 °F 59% 30.07 in 10.0 mi ESE 3.5 mph - N/A   Clear
2:40 AM 59.0 °F 44.6 °F 59% 30.07 in 10.0 mi Calm Calm - N/A   Clear
3:00 AM 59.0 °F 42.8 °F 55% 30.06 in 10.0 mi ESE 4.6 mph - N/A   Clear
3:20 AM 60.8 °F 42.8 °F 52% 30.06 in 10.0 mi Calm Calm - N/A   Clear
3:40 AM 60.8 °F 42.8 °F 52% 30.06 in 10.0 mi Calm Calm - N/A   Clear
4:00 AM 59.0 °F 42.8 °F 55% 30.06 in 10.0 mi Calm Calm - N/A   Clear
4:20 AM 59.0 °F 42.8 °F 55% 30.05 in 10.0 mi Calm Calm - N/A   Clear
4:40 AM 59.0 °F 44.6 °F 59% 30.04 in 10.0 mi Calm Calm - N/A   Clear
5:00 AM 59.0 °F 44.6 °F 59% 30.05 in 10.0 mi Calm Calm - N/A   Clear
5:20 AM 59.0 °F 44.6 °F 59% 30.04 in 10.0 mi Calm Calm - N/A   Clear
5:40 AM 59.0 °F 44.6 °F 59% 30.04 in 10.0 mi Calm Calm - N/A   Clear
6:00 AM 59.0 °F 44.6 °F 59% 30.04 in 10.0 mi Calm Calm - N/A   Clear
6:20 AM 60.8 °F 42.8 °F 52% 30.04 in 10.0 mi Calm Calm - N/A   Clear
6:40 AM 60.8 °F 42.8 °F 52% 30.04 in 10.0 mi Calm Calm - N/A   Clear
7:00 AM 60.8 °F 42.8 °F 52% 30.05 in 10.0 mi Calm Calm - N/A   Clear
7:20 AM 60.8 °F 44.6 °F 55% 30.04 in 10.0 mi Calm Calm - N/A   Clear
7:40 AM 60.8 °F 44.6 °F 55% 30.05 in 10.0 mi Calm Calm - N/A   Clear
8:00 AM 62.6 °F 44.6 °F 52% 30.05 in 10.0 mi Calm Calm - N/A   Clear
8:20 AM 64.4 °F 44.6 °F 49% 30.05 in 10.0 mi Calm Calm - N/A   Clear
8:40 AM 62.6 °F 44.6 °F 52% 30.05 in 10.0 mi Calm Calm - N/A   Clear
9:00 AM 64.4 °F 46.4 °F 52% 30.05 in 10.0 mi NW 3.5 mph - N/A   Clear
12:20 PM 71.6 °F 46.4 °F 41% 30.06 in 10.0 mi SW 4.6 mph - N/A   Clear
12:40 PM 73.4 °F 44.6 °F 36% 30.05 in 10.0 mi SW 10.4 mph - N/A   Clear
1:00 PM 73.4 °F 44.6 °F 36% 30.06 in 10.0 mi SW 8.1 mph - N/A   Clear
1:20 PM 73.4 °F 44.6 °F 36% 30.06 in 10.0 mi West 5.8 mph - N/A   Clear
1:40 PM 75.2 °F 42.8 °F 31% 30.06 in 10.0 mi South 4.6 mph - N/A   Clear
2:00 PM 73.4 °F 42.8 °F 33% 30.05 in 10.0 mi WNW 6.9 mph - N/A   Clear
2:20 PM 73.4 °F 42.8 °F 33% 30.05 in 10.0 mi West 8.1 mph - N/A   Clear
2:40 PM 75.2 °F 41.0 °F 29% 30.05 in 10.0 mi South 3.5 mph - N/A   Clear
3:00 PM 75.2 °F 41.0 °F 29% 30.05 in 10.0 mi SW 8.1 mph - N/A   Clear
3:20 PM 73.4 °F 41.0 °F 31% 30.04 in 10.0 mi SSW 9.2 mph - N/A   Clear
3:40 PM 75.2 °F 41.0 °F 29% 30.04 in 10.0 mi SSW 4.6 mph - N/A   Clear
4:00 PM 75.2 °F 41.0 °F 29% 30.03 in 10.0 mi Calm Calm - N/A   Clear
4:20 PM 75.2 °F 39.2 °F 27% 30.03 in 10.0 mi SW 4.6 mph - N/A   Clear
4:40 PM 75.2 °F 39.2 °F 27% 30.03 in 10.0 mi Calm Calm - N/A   Clear
5:00 PM 75.2 °F 39.2 °F 27% 30.02 in 10.0 mi SW 8.1 mph - N/A   Clear
5:05 PM 75.2 °F 39.2 °F 27% 30.02 in 10.0 mi SW 3.5 mph - N/A   Clear
10:40 PM 62.6 °F 42.8 °F 48% 30.02 in 10.0 mi Calm Calm - N/A   Clear
11:00 PM 62.6 °F 42.8 °F 48% 30.02 in 10.0 mi Calm Calm - N/A   Clear
11:10 PM 62.6 °F 44.6 °F 52% 30.02 in 10.0 mi Calm Calm - N/A   Clear